sat.trackr.live / text

‹ back to catalog

STARLINK-3109

NORAD 49143 · 2021-082P

PAYLOAD ACTIVE UNKNOWN

§ Identity

Operator
Country
US
Launch date
2021-09-14
Launch site
AFWTR
Launch vehicle
Mass (kg)
RCS (m²)

Purposes: comms

External: N2YO · Heavens-Above · Gunter

§ Orbital elements

Epoch: 2026-09-09T23:11:56.287680Z

Period
96.16 min
Inclination
70.0005°
Eccentricity
0.0002853
Mean motion
14.97518452 rev/d
Perigee alt
572.6 km
Apogee alt
576.6 km
Semi-major
6,952.7 km
B*
-6.0598e-5
RAAN
171.2031°
Arg perigee
268.2913°
Mean anomaly
91.7919°
Rev number
27,515

§ Raw data

STARLINK-31091 49143U 21082P   26252.96662370 -.00000800  00000+0 -60598-4 0  99912 49143  70.0005 171.2031 0002853 268.2913  91.7919 14.97518452275151

JSON: /api/v1/satellites/49143 · /tle

For live sub-satellite position, see the globe view (requires WebGL).

§ Visibility from observer

Set your observer location to see the next 7 days of passes ≥ 10°. The values pass through the URL so the page stays shareable.

No JS? Fill the form by hand. The geolocation button needs JavaScript.